Wind_Speed
7 5 12 12 14 17 15 19 21 19 17 12 18 18 18 14 18 18 23 17 19 16 17 28 25 19 29 34 38 42 43 41 41 39 39 38 36 35 34 33 32 29 31 32
4 11 17 12 15 16 17 18 19 14 14 10 15 17 16 14 13 20 26 25 20 24 21 15 29 23 22 23 31 44 44 43 41 41 39 39 38 36 34 35 32 31 32 35
9 16 18 13 11 12 13 16 19 18 14 9 8 22 18 20 20 23 29 32 24 24 25 24 21 32 25 22 30 36 43 43 39 39 39 38 36 34 34 36 36 35 32 33
9 7 9 18 16 14 14 11 14 17 13 9 8 9 14 8 15 16 23 30 25 24 25 24 19 26 29 27 28 34 36 45 44 44 44 42 43 40 38 38 40 35 33 32
8 22 18 15 9 12 9 11 12 13 13 11 14 8 12 9 13 17 19 31 30 24 26 25 20 20 29 28 25 32 36 37 44 43 46 46 46 41 38 37 40 37 35 36
16 21 2 1 15 14 15 13 16 14 7 7 12 10 12 12 21 11 16 28 29 21 23 25 23 20 25 30 30 30 39 41 38 41 44 39 40 36 39 37 40 40 39 39
9 6 3 5 11 7 1 5 4 4 1 5 3 9 15 10 10 18 18 25 30 27 26 25 26 27 20 25 33 23 34 41 37 38 40 43 41 39 41 40 40 42 41 41
6 8 6 8 4 6 8 2 2 4 3 3 4 6 5 5 11 20 26 28 26 24 27 28 28 24 17 25 31 31 32 35 37 35 35 38 39 38 38 38 41 42 43 43
5 6 3 11 4 8 6 10 15 7 4 4 3 5 7 14 19 17 10 19 22 22 19 21 28 28 22 22 20 28 37 34 33 30 31 33 34 36 37 36 37 41 44 41
3 7 4 10 6 2 4 10 7 4 4 4 2 3 9 25 27 16 7 9 18 22 21 24 25 28 24 15 20 24 33 30 23 25 26 30 26 29 34 37 38 39 45 43
6 4 7 7 5 10 8 9 5 5 5 3 3 1 14 24 25 10 11 8 8 19 15 16 21 21 19 15 17 23 25 23 21 20 22 26 30 30 31 34 37 39 43 41
3 3 5 10 5 2 8 14 6 3 5 4 3 3 20 28 20 12 13 17 23 24 20 23 23 23 19 15 13 14 15 14 12 14 20 22 24 26 28 30 33 36 32 30
7 3 5 8 2 11 7 23 19 3 2 10 5 6 21 27 21 20 21 29 30 36 39 35 34 31 22 21 18 14 12 10 10 10 12 15 15 13 13 12 13 13 12 11
14 3 3 3 4 7 13 22 22 13 4 7 9 14 24 27 24 22 27 37 40 44 43 44 46 41 35 32 27 23 19 16 12 6 6 7 9 9 10 12 12 13 10 10
4 3 5 8 3 7 20 16 23 21 16 8 12 14 21 22 19 20 30 41 47 47 48 44 46 45 41 38 34 32 30 27 25 24 22 25 24 23 23 22 21 21 20 20
3 3 3 2 7 5 16 19 17 18 19 10 12 14 18 27 25 39 37 41 43 43 43 45 48 48 49 46 43 41 40 40 37 37 36 32 30 28 27 25 25 23 22 21
4 3 3 3 3 1 6 20 10 13 18 10 10 10 15 17 24 34 36 40 40 43 45 49 50 51 49 46 43 45 41 38 39 38 34 31 28 28 26 24 23 23 22 20
5 6 1 3 5 8 3 15 6 7 21 23 16 15 14 13 28 43 46 40 42 45 47 50 48 46 46 44 41 38 37 37 36 35 32 29 26 26 24 23 24 23 21 20
7 2 3 3 3 3 3 13 8 7 11 22 19 19 26 14 24 44 41 40 40 43 46 48 46 44 43 43 40 38 39 37 36 35 32 28 26 25 23 23 22 23 21 21
7 5 5 4 6 7 5 20 26 8 11 28 26 22 21 20 14 9 29 37 41 43 43 44 43 42 40 39 36 38 39 38 39 34 33 30 28 27 27 25 24 23 22 22
7 5 4 5 5 3 6 28 11 7 3 23 22 21 22 12 12 14 28 37 40 43 43 42 41 44 43 39 38 40 38 39 33 30 29 28 28 27 26 24 23 22 21 20
4 5 3 3 5 5 25 11 8 2 4 11 15 17 18 20 24 28 33 37 39 41 41 40 41 40 38 36 35 37 38 32 28 27 26 27 27 26 24 24 24 24 24 24
3 2 2 3 2 3 7 4 4 3 4 8 7 10 12 17 22 26 31 34 36 37 38 37 37 37 36 34 33 35 32 26 25 25 27 27 25 26 26 25 25 25 25 25
3 1 2 2 1 2 2 2 2 3 4 5 8 11 15 20 23 28 30 32 34 34 34 33 32 34 34 32 31 31 28 25 23 25 27 26 26 26 26 26 26 26 27 27
3 3 4 2 4 2 1 3 3 5 7 10 12 14 17 22 25 27 29 30 31 30 30 29 29 30 30 28 28 26 24 23 24 26 27 28 27 27 27 27 27 26 25 24
7 5 3 4 9 4 6 9 8 9 10 10 12 16 18 20 23 25 27 27 26 26 26 26 27 26 27 27 28 27 25 23 23 25 26 26 25 24 24 23 22 22 22 22
Wind_Direction
269 249 250 252 233 245 263 265 270 268 278 277 265 271 275 262 264 277 281 281 283 289 256 233 249 247 227 217 213 209 201 203 205 206 209 208 209 211 215 220 221 215 216 216
308 261 273 268 272 278 282 293 283 275 272 248 274 276 275 267 254 250 266 272 267 281 277 268 251 243 236 231 219 215 205 203 205 212 212 213 212 212 222 222 223 223 220 219
271 269 297 295 299 288 266 268 273 269 286 274 278 273 275 263 249 248 254 260 256 257 263 256 251 235 236 234 230 215 212 210 212 215 215 214 214 219 225 219 223 225 224 222
274 267 278 308 294 283 285 280 278 271 267 264 194 283 266 255 240 240 246 255 251 247 256 259 257 241 228 227 224 223 217 216 220 221 220 219 219 218 219 222 226 227 227 225
281 305 310 313 298 306 254 307 291 280 259 270 239 252 259 222 237 234 228 242 252 243 249 255 253 246 231 226 222 252 239 223 218 223 221 224 226 226 230 222 225 228 229 230
286 298 249 310 300 278 270 281 271 257 238 244 228 207 271 223 229 244 235 240 240 233 234 245 246 235 229 221 212 226 236 221 217 220 224 221 219 224 221 227 229 231 230 230
330 303 289 30 311 320 111 285 308 352 343 231 272 203 250 292 262 233 232 229 230 228 230 234 234 232 219 216 216 219 224 217 219 225 226 229 234 238 239 241 238 234 232 231
342 327 10 337 319 274 312 286 268 278 227 246 174 240 250 28 336 297 246 232 229 223 226 232 228 226 224 216 214 216 221 226 221 220 225 226 230 235 241 244 242 241 240 241
320 281 275 301 349 342 341 354 293 257 213 257 217 279 293 354 311 300 258 219 220 221 217 229 221 221 222 213 212 218 220 220 221 226 222 228 234 238 243 244 245 250 248 246
273 290 307 337 349 309 320 348 325 338 286 268 277 284 348 335 330 337 175 171 210 223 226 220 216 215 220 226 236 223 215 220 224 240 234 232 243 251 254 254 253 259 254 246
278 237 293 328 5 320 347 346 338 281 259 283 317 74 355 340 327 7 53 98 213 221 215 205 196 202 200 214 226 219 212 215 226 233 229 232 236 237 240 246 253 253 254 250
305 286 294 310 283 308 15 349 328 264 340 328 284 47 358 345 331 41 61 78 78 104 111 129 145 163 166 176 197 180 188 201 211 225 226 226 231 234 242 249 253 255 254 256
352 322 318 348 2 7 9 360 358 312 255 16 15 328 343 349 359 31 64 68 74 81 91 105 111 116 129 131 131 133 140 152 176 199 235 223 227 228 241 255 278 297 281 289
336 278 252 265 328 352 3 13 10 17 23 324 29 344 348 350 357 25 49 66 68 69 70 76 88 96 98 100 104 105 103 107 106 132 123 95 66 62 71 72 73 69 61 68
346 281 312 313 213 51 33 16 16 25 2 29 348 10 5 354 355 17 50 62 63 62 63 65 73 82 90 92 93 95 96 93 94 94 86 80 79 80 82 82 81 82 83 88
337 295 319 347 144 91 39 19 24 25 7 354 358 31 14 0 16 31 34 54 56 59 61 64 70 80 85 90 91 93 93 93 94 90 87 85 86 85 84 85 85 87 84 85
314 306 352 303 244 70 15 13 16 33 24 344 11 334 339 9 29 27 29 44 50 54 60 69 77 83 85 87 93 91 90 91 89 88 86 85 85 84 85 86 85 85 85 86
294 319 70 286 7 41 325 15 346 351 27 18 10 352 350 38 43 39 36 42 51 62 68 78 83 87 89 91 90 92 90 88 88 88 87 87 87 87 86 83 81 80 78 77
221 328 26 74 15 191 353 1 352 354 23 11 4 1 2 19 49 38 37 54 66 75 80 83 85 86 88 89 90 90 88 88 86 84 85 85 86 88 87 83 81 78 76 73
6 38 68 13 76 33 319 332 331 294 36 359 4 9 9 27 57 20 32 66 75 79 83 87 91 91 88 85 88 89 85 82 80 81 82 81 80 80 78 78 75 73 69 66
335 359 62 2 83 28 333 326 328 61 320 345 5 18 33 49 58 54 72 76 79 81 82 86 86 84 86 85 85 83 82 78 81 82 82 80 77 74 73 74 71 67 65 63
348 348 339 354 58 38 358 356 58 269 6 9 25 40 54 72 79 79 81 81 83 83 84 83 83 82 81 81 79 80 78 80 81 81 80 80 79 77 75 70 69 65 60 56
37 23 358 47 131 23 22 65 52 54 52 19 40 60 75 81 81 82 83 85 84 85 84 84 84 83 80 77 75 78 80 80 79 76 73 72 71 70 68 63 61 59 54 49
320 326 93 109 224 88 137 60 71 121 116 113 107 106 103 98 96 93 92 90 89 87 86 85 84 81 79 75 72 73 75 72 71 73 75 74 71 67 63 59 54 48 44 39
227 356 129 71 102 141 185 170 142 124 117 116 118 113 109 109 104 101 98 95 92 89 87 83 82 82 83 82 80 79 78 79 78 77 74 70 65 60 56 51 48 42 37 30
186 183 167 210 178 163 165 164 152 147 140 132 129 123 120 117 113 108 102 98 95 92 90 88 86 85 85 85 83 82 78 75 73 73 71 67 62 58 53 48 43 37 32 26
Height
1468 1469 1462 1457 1457 1453 1450 1447 1442 1438 1432 1437 1428 1424 1419 1417 1415 1413 1409 1411 1412 1414 1416 1419 1423 1421 1422 1426 1431 1434 1439 1445 1451 1455 1461 1465 1469 1474 1478 1483 1488 1491 1493 1495
1470 1463 1452 1452 1451 1449 1449 1444 1436 1432 1427 1430 1425 1419 1414 1411 1408 1408 1404 1403 1406 1408 1408 1408 1414 1418 1417 1421 1423 1431 1435 1441 1446 1453 1457 1463 1467 1471 1476 1481 1484 1487 1489 1492
1467 1452 1449 1448 1449 1446 1443 1437 1431 1427 1423 1424 1427 1410 1406 1400 1399 1399 1397 1394 1399 1404 1407 1412 1411 1412 1414 1417 1416 1423 1430 1436 1443 1450 1455 1460 1465 1470 1473 1476 1479 1481 1486 1489
1457 1446 1444 1443 1445 1443 1436 1423 1423 1423 1426 1421 1413 1409 1393 1389 1390 1391 1390 1388 1391 1395 1399 1401 1405 1405 1409 1413 1416 1423 1427 1433 1440 1445 1451 1455 1458 1461 1465 1471 1475 1478 1482 1484
1454 1445 1441 1444 1441 1436 1433 1425 1423 1421 1417 1419 1413 1415 1375 1380 1382 1380 1380 1378 1382 1387 1390 1394 1396 1399 1408 1411 1414 1419 1427 1431 1436 1440 1446 1449 1454 1459 1462 1466 1469 1472 1476 1479
1455 1445 1442 1443 1437 1431 1426 1423 1414 1411 1410 1407 1392 1402 1367 1373 1365 1370 1372 1373 1374 1382 1387 1391 1395 1404 1406 1407 1412 1416 1423 1428 1433 1437 1442 1444 1445 1454 1457 1460 1464 1468 1470 1473
1456 1447 1442 1442 1436 1422 1424 1423 1427 1431 1430 1424 1385 1392 1370 1364 1362 1360 1360 1362 1366 1374 1382 1386 1391 1396 1397 1404 1410 1411 1416 1423 1430 1435 1438 1442 1447 1451 1453 1457 1460 1462 1465 1467
1484 1465 1446 1443 1445 1434 1426 1423 1421 1412 1404 1390 1381 1386 1364 1364 1362 1356 1353 1355 1361 1368 1373 1378 1383 1389 1396 1402 1408 1409 1416 1421 1426 1430 1435 1439 1443 1447 1449 1452 1454 1456 1457 1461
1483 1467 1444 1444 1439 1436 1424 1426 1414 1401 1397 1389 1373 1364 1355 1364 1362 1351 1347 1351 1356 1363 1369 1374 1380 1388 1396 1400 1404 1408 1414 1418 1422 1426 1432 1436 1440 1443 1445 1446 1449 1452 1453 1454
1482 1473 1445 1441 1439 1435 1432 1428 1417 1403 1392 1390 1370 1373 1377 1370 1352 1338 1339 1346 1352 1359 1366 1372 1379 1386 1394 1400 1404 1406 1411 1415 1419 1426 1429 1434 1437 1440 1443 1444 1445 1446 1445 1446
1480 1477 1454 1446 1451 1449 1436 1435 1429 1425 1410 1382 1381 1377 1391 1386 1367 1347 1342 1346 1352 1358 1363 1368 1376 1386 1392 1398 1402 1406 1409 1414 1420 1424 1430 1434 1436 1437 1438 1440 1440 1439 1440 1439
1481 1474 1468 1456 1452 1450 1446 1446 1440 1429 1405 1399 1386 1384 1395 1392 1369 1357 1354 1354 1354 1358 1362 1367 1372 1380 1388 1396 1401 1405 1411 1415 1420 1425 1429 1431 1432 1432 1434 1436 1436 1435 1434 1434
1482 1473 1473 1459 1453 1450 1455 1450 1438 1420 1419 1416 1414 1404 1408 1399 1379 1372 1364 1363 1364 1365 1367 1373 1378 1384 1393 1399 1405 1410 1413 1416 1421 1424 1429 1430 1430 1430 1432 1433 1434 1436 1433 1436
1483 1478 1476 1476 1472 1477 1468 1458 1450 1438 1444 1437 1440 1433 1423 1416 1400 1385 1380 1377 1375 1374 1378 1382 1385 1392 1400 1404 1409 1413 1417 1420 1424 1425 1429 1430 1431 1432 1432 1434 1435 1436 1439 1438
1483 1481 1474 1469 1469 1474 1476 1469 1467 1462 1462 1452 1446 1444 1442 1434 1420 1405 1397 1390 1385 1388 1391 1396 1399 1405 1410 1413 1417 1421 1423 1425 1427 1428 1431 1433 1436 1436 1439 1441 1441 1441 1444 1443
1483 1481 1475 1473 1471 1471 1475 1476 1474 1471 1467 1463 1453 1449 1455 1441 1431 1405 1408 1404 1403 1406 1409 1411 1413 1415 1416 1420 1425 1427 1429 1431 1432 1431 1438 1439 1442 1445 1447 1449 1448 1449 1451 1451
1484 1482 1484 1473 1466 1463 1477 1484 1482 1486 1485 1478 1470 1472 1460 1454 1440 1434 1426 1418 1420 1421 1422 1422 1422 1425 1429 1432 1437 1434 1438 1440 1439 1441 1446 1450 1452 1452 1454 1455 1454 1456 1457 1455
1486 1478 1482 1482 1479 1479 1490 1490 1486 1485 1485 1482 1481 1476 1470 1464 1459 1447 1441 1439 1437 1436 1434 1435 1437 1440 1442 1444 1448 1450 1451 1449 1449 1452 1454 1457 1459 1459 1461 1461 1460 1461 1460 1461
1486 1482 1491 1492 1497 1485 1484 1492 1497 1496 1493 1494 1490 1481 1473 1466 1462 1455 1461 1459 1455 1452 1450 1449 1451 1452 1453 1454 1458 1459 1457 1458 1460 1461 1463 1465 1466 1466 1466 1465 1465 1465 1466 1468
1483 1483 1492 1506 1502 1503 1503 1496 1494 1494 1492 1502 1499 1493 1486 1477 1471 1489 1481 1473 1468 1465 1464 1463 1463 1464 1465 1469 1470 1466 1467 1467 1467 1471 1472 1473 1474 1473 1472 1474 1472 1472 1472 1473
1502 1502 1517 1521 1507 1506 1506 1497 1489 1496 1521 1515 1509 1505 1500 1494 1499 1500 1492 1484 1480 1477 1476 1477 1476 1473 1475 1479 1479 1474 1477 1475 1480 1480 1481 1481 1481 1480 1481 1481 1479 1478 1478 1477
1518 1521 1526 1525 1516 1508 1511 1498 1503 1525 1524 1521 1518 1514 1510 1506 1503 1500 1496 1492 1490 1487 1486 1486 1485 1485 1487 1488 1487 1484 1482 1488 1489 1489 1488 1487 1487 1487 1488 1486 1485 1485 1484 1482
1524 1522 1522 1525 1528 1526 1525 1525 1524 1524 1524 1523 1520 1518 1515 1511 1508 1505 1502 1500 1498 1497 1496 1496 1494 1495 1495 1495 1495 1491 1494 1497 1496 1494 1493 1493 1493 1492 1492 1492 1491 1489 1488 1486
1521 1520 1522 1526 1525 1526 1526 1526 1524 1523 1523 1522 1520 1519 1517 1514 1513 1510 1509 1507 1506 1505 1504 1504 1503 1502 1501 1502 1501 1500 1501 1502 1501 1499 1499 1499 1498 1497 1496 1495 1494 1493 1490 1488
1522 1521 1522 1526 1527 1527 1526 1525 1525 1525 1524 1523 1522 1521 1520 1518 1516 1515 1514 1514 1513 1513 1512 1511 1510 1509 1508 1508 1507 1507 1507 1508 1506 1505 1503 1503 1503 1501 1500 1498 1496 1495 1493 1491
1516 1516 1519 1521 1517 1521 1522 1523 1524 1524 1524 1524 1524 1523 1522 1522 1520 1519 1518 1519 1518 1518 1518 1517 1515 1515 1514 1514 1513 1513 1514 1514 1513 1509 1508 1508 1507 1505 1504 1503 1502 1501 1498 1495